| time (UTC) | temp F | wind direction | speed MPH | gust MPH | rain 1hr in | rain 24hr in | rain mn in | humidity % | barometer mb |
| 20260902081524 | 70 | 155 | 0.0 | 0.0 | 0.00 | 0.00 | 0.00 | 95 | 1019.0 |
| 20260902080013 | 70 | 155 | 0.0 | 0.0 | 0.00 | 0.00 | 0.00 | 95 | 1018.9 |
| 20260902074508 | 70 | 155 | 0.0 | 0.0 | 0.00 | 0.00 | 0.00 | 95 | 1018.9 |
| 20260902073009 | 70 | 155 | 0.0 | 0.0 | 0.00 | 0.00 | 0.00 | 95 | 1018.8 |
| 20260902071536 | 71 | 155 | 0.0 | 0.0 | 0.00 | 0.00 | 0.00 | 95 | 1019.1 |
| 20260902070015 | 71 | 155 | 0.0 | 0.0 | 0.00 | 0.00 | 0.00 | 95 | 1018.9 |
| 20260902064519 | 71 | 155 | 0.0 | 0.0 | 0.00 | 0.00 | 0.00 | 95 | 1018.9 |
| 20260902063026 | 71 | 155 | 0.0 | 0.0 | 0.00 | 0.00 | 0.00 | 95 | 1019.0 |
| 20260902061518 | 71 | 155 | 0.0 | 0.0 | 0.00 | 0.00 | 0.00 | 95 | 1019.0 |
| 20260902060021 | 71 | 155 | 1.0 | 2.0 | 0.00 | 0.00 | 0.00 | 95 | 1019.0 |
| 20260902053022 | 72 | 167 | 0.0 | 0.0 | 0.00 | 0.00 | 0.00 | 95 | 1019.1 |
| 20260902051529 | 72 | 167 | 0.0 | 0.0 | 0.00 | 0.00 | 0.00 | 95 | 1018.9 |
| 20260902050030 | 72 | 167 | 0.0 | 0.0 | 0.00 | 0.00 | 0.00 | 95 | 1019.0 |
| 20260902044526 | 72 | 167 | 0.0 | 0.0 | 0.00 | 0.00 | 0.00 | 95 | 1018.9 |
| 20260902043018 | 72 | 167 | 0.0 | 0.0 | 0.00 | 0.00 | 0.00 | 95 | 1018.9 |
| 20260902041514 | 72 | 167 | 0.0 | 0.0 | 0.00 | 0.00 | 0.00 | 95 | 1019.1 |
| 20260902040023 | 73 | 167 | 0.0 | 0.0 | 0.00 | 0.00 | 0.00 | 95 | 1018.9 |
| 20260902034524 | 73 | 167 | 0.0 | 0.0 | 0.00 | 0.00 | 0.00 | 94 | 1018.8 |
| 20260902033024 | 73 | 167 | 0.0 | 3.0 | 0.00 | 0.00 | 0.00 | 94 | 1018.9 |
| 20260902031526 | 73 | 167 | 0.0 | 0.0 | 0.00 | 0.00 | 0.00 | 94 | 1018.9 |
| 20260902030024 | 74 | 167 | 0.0 | 0.0 | 0.00 | 0.00 | 0.00 | 93 | 1018.9 |
| 20260902024516 | 74 | 167 | 0.0 | 0.0 | 0.00 | 0.00 | 0.00 | 93 | 1018.8 |
| 20260902023018 | 75 | 167 | 0.0 | 0.0 | 0.00 | 0.00 | 0.00 | 93 | 1018.8 |
| 20260902021527 | 75 | 167 | 0.0 | 0.0 | 0.00 | 0.00 | 0.00 | 92 | 1018.7 |
| 20260902020023 | 75 | 167 | 0.0 | 0.0 | 0.00 | 0.00 | 0.00 | 92 | 1018.7 |
| 20260902014533 | 76 | 167 | 0.0 | 0.0 | 0.00 | 0.00 | 0.00 | 92 | 1018.5 |
| 20260902013033 | 76 | 167 | 0.0 | 0.0 | 0.00 | 0.00 | 0.00 | 91 | 1018.3 |
| 20260902011527 | 77 | 167 | 0.0 | 0.0 | 0.00 | 0.00 | 0.00 | 90 | 1018.4 |
| 20260902010038 | 77 | 167 | 0.0 | 0.0 | 0.00 | 0.00 | 0.00 | 89 | 1018.3 |
| 20260902004527 | 78 | 167 | 0.0 | 0.0 | 0.00 | 0.00 | 0.00 | 89 | 1018.2 |
| 20260902003031 | 79 | 167 | 0.0 | 0.0 | 0.00 | 0.00 | 0.00 | 87 | 1018.0 |
| 20260902001527 | 80 | 167 | 0.0 | 0.0 | 0.00 | 0.00 | 0.00 | 85 | 1018.0 |
| 20260902000038 | 81 | 167 | 0.0 | 0.0 | 0.00 | 0.00 | 0.00 | 83 | 1018.0 |
| 20260901234527 | 82 | 167 | 0.0 | 0.0 | 0.00 | 0.00 | 0.00 | 81 | 1018.0 |
| 20260901233026 | 83 | 167 | 0.0 | 1.0 | 0.00 | 0.00 | 0.00 | 80 | 1018.0 |
| 20260901231523 | 84 | 163 | 0.0 | 0.0 | 0.00 | 0.00 | 0.00 | 76 | 1018.0 |
| 20260901230033 | 85 | 163 | 0.0 | 0.0 | 0.00 | 0.00 | 0.00 | 77 | 1018.2 |
| 20260901224540 | 85 | 163 | 0.0 | 0.0 | 0.00 | 0.00 | 0.00 | 75 | 1018.0 |
| 20260901223043 | 85 | 163 | 0.0 | 2.0 | 0.00 | 0.00 | 0.00 | 73 | 1018.0 |
| 20260901221528 | 85 | 170 | 0.0 | 0.0 | 0.00 | 0.00 | 0.00 | 71 | 1018.0 |
| 20260901220031 | 87 | 170 | 0.0 | 0.0 | 0.00 | 0.00 | 0.00 | 66 | 1018.2 |
| 20260901214531 | 89 | 170 | 0.0 | 0.0 | 0.00 | 0.00 | 0.00 | 61 | 1018.1 |
| 20260901213039 | 90 | 170 | 0.0 | 0.0 | 0.00 | 0.00 | 0.00 | 59 | 1018.0 |
| 20260901211526 | 91 | 161 | 1.0 | 2.0 | 0.00 | 0.00 | 0.00 | 55 | 1017.9 |
| 20260901210024 | 91 | 150 | 0.0 | 2.0 | 0.00 | 0.00 | 0.00 | 54 | 1017.9 |
| 20260901204515 | 91 | 119 | 0.0 | 3.0 | 0.00 | 0.00 | 0.00 | 51 | 1018.1 |
| 20260901203029 | 92 | 149 | 0.0 | 2.0 | 0.00 | 0.00 | 0.00 | 55 | 1018.2 |
| 20260901201529 | 92 | 5 | 0.0 | 3.0 | 0.00 | 0.00 | 0.00 | 53 | 1018.3 |
| 20260901200041 | 92 | 337 | 0.0 | 3.0 | 0.00 | 0.00 | 0.00 | 51 | 1018.5 |
| 20260901194535 | 92 | 286 | 0.0 | 5.0 | 0.00 | 0.00 | 0.00 | 47 | 1018.6 |
| 20260901193024 | 92 | 352 | 2.0 | 6.0 | 0.00 | 0.00 | 0.00 | 50 | 1018.7 |
| 20260901191527 | 92 | 24 | 0.0 | 5.0 | 0.00 | 0.00 | 0.00 | 49 | 1018.9 |
| 20260901190014 | 92 | 360 | 4.0 | 5.0 | 0.00 | 0.00 | 0.00 | 47 | 1019.0 |
| 20260901184529 | 92 | 352 | 2.0 | 5.0 | 0.00 | 0.00 | 0.00 | 52 | 1019.1 |
| 20260901183030 | 92 | 174 | 0.0 | 5.0 | 0.00 | 0.00 | 0.00 | 55 | 1019.2 |
| 20260901181536 | 92 | 327 | 2.0 | 4.0 | 0.00 | 0.00 | 0.00 | 51 | 1019.3 |
| 20260901180032 | 91 | 352 | 2.0 | 6.0 | 0.00 | 0.00 | 0.00 | 48 | 1019.4 |
| 20260901174524 | 91 | 9 | 1.0 | 7.0 | 0.00 | 0.00 | 0.00 | 55 | 1019.4 |
| 20260901173031 | 91 | 347 | 2.0 | 7.0 | 0.00 | 0.00 | 0.00 | 56 | 1019.5 |
| 20260901171513 | 90 | 36 | 0.0 | 6.0 | 0.00 | 0.00 | 0.00 | 56 | 1019.7 |
| 20260901170101 | 90 | 10 | 0.0 | 4.0 | 0.00 | 0.00 | 0.00 | 55 | 1019.8 |
| 20260901164533 | 89 | 16 | 1.0 | 4.0 | 0.00 | 0.00 | 0.00 | 59 | 1019.9 |
| 20260901163031 | 89 | 317 | 3.0 | 6.0 | 0.00 | 0.00 | 0.00 | 64 | 1020.2 |
| 20260901161527 | 88 | 352 | 1.0 | 4.0 | 0.00 | 0.00 | 0.00 | 64 | 1020.3 |
| 20260901160037 | 88 | 306 | 1.0 | 8.0 | 0.00 | 0.00 | 0.00 | 65 | 1020.6 |
| 20260901154533 | 87 | 338 | 2.0 | 7.0 | 0.00 | 0.00 | 0.00 | 66 | 1020.6 |
| 20260901153015 | 86 | 313 | 1.0 | 3.0 | 0.00 | 0.00 | 0.00 | 67 | 1020.8 |
| 20260901151533 | 85 | 229 | 0.0 | 2.0 | 0.00 | 0.00 | 0.00 | 66 | 1020.8 |
| 20260901150033 | 84 | 344 | 0.0 | 3.0 | 0.00 | 0.00 | 0.00 | 68 | 1020.8 |
| 20260901144530 | 83 | 311 | 3.0 | 4.0 | 0.00 | 0.00 | 0.00 | 71 | 1020.9 |
| 20260901143030 | 82 | 300 | 1.0 | 4.0 | 0.00 | 0.00 | 0.00 | 75 | 1020.9 |
| 20260901141538 | 81 | 306 | 0.0 | 5.0 | 0.00 | 0.00 | 0.00 | 78 | 1020.8 |
| 20260901140029 | 79 | 278 | 0.0 | 2.0 | 0.00 | 0.00 | 0.00 | 81 | 1020.9 |
| 20260901134534 | 77 | 269 | 2.0 | 2.0 | 0.00 | 0.00 | 0.00 | 88 | 1020.8 |
| 20260901133038 | 75 | 23 | 0.0 | 0.0 | 0.00 | 0.00 | 0.00 | 89 | 1020.8 |
| 20260901131540 | 74 | 238 | 0.0 | 0.0 | 0.00 | 0.00 | 0.00 | 92 | 1020.9 |
| 20260901130038 | 72 | 160 | 0.0 | 0.0 | 0.00 | 0.00 | 0.00 | 96 | 1020.7 |
| 20260901124531 | 71 | 172 | 0.0 | 0.0 | 0.00 | 0.00 | 0.00 | 97 | 1020.7 |
| 20260901123039 | 70 | 172 | 0.0 | 0.0 | 0.00 | 0.00 | 0.00 | 97 | 1020.7 |
| 20260901121528 | 69 | 172 | 0.0 | 1.0 | 0.00 | 0.00 | 0.00 | 97 | 1020.4 |
| 20260901120023 | 68 | 254 | 0.0 | 0.0 | 0.00 | 0.00 | 0.00 | 96 | 1020.3 |
| 20260901114517 | 68 | 254 | 0.0 | 0.0 | 0.00 | 0.00 | 0.00 | 96 | 1020.3 |
| 20260901113014 | 68 | 146 | 0.0 | 0.0 | 0.00 | 0.00 | 0.00 | 96 | 1020.1 |
| 20260901111511 | 67 | 148 | 0.0 | 0.0 | 0.00 | 0.00 | 0.00 | 96 | 1019.9 |
| 20260901110008 | 67 | 148 | 0.0 | 0.0 | 0.00 | 0.00 | 0.00 | 96 | 1019.6 |
| 20260901104531 | 67 | 148 | 0.0 | 0.0 | 0.00 | 0.00 | 0.00 | 96 | 1019.5 |
| 20260901103026 | 68 | 148 | 0.0 | 0.0 | 0.00 | 0.00 | 0.00 | 96 | 1019.6 |
| 20260901101528 | 68 | 148 | 0.0 | 0.0 | 0.00 | 0.00 | 0.00 | 96 | 1019.6 |
| 20260901100029 | 68 | 148 | 0.0 | 0.0 | 0.00 | 0.00 | 0.00 | 96 | 1019.5 |
| 20260901094517 | 68 | 148 | 0.0 | 0.0 | 0.00 | 0.00 | 0.00 | 96 | 1019.4 |
| 20260901093013 | 69 | 148 | 0.0 | 0.0 | 0.00 | 0.00 | 0.00 | 96 | 1019.5 |
| 20260901091511 | 69 | 148 | 0.0 | 0.0 | 0.00 | 0.00 | 0.00 | 96 | 1019.4 |
| 20260901090041 | 69 | 148 | 0.0 | 0.0 | 0.00 | 0.00 | 0.00 | 96 | 1019.3 |
| 20260901084530 | 69 | 148 | 0.0 | 0.0 | 0.00 | 0.00 | 0.00 | 96 | 1019.5 |
| 20260901083035 | 69 | 148 | 0.0 | 0.0 | 0.00 | 0.00 | 0.00 | 96 | 1019.6 |